星链-32629 (STARLINK-32629)

导读 | 豆包AI

STARLINK-32629是美国SpaceX公司星链星座的第二代卫星,于2024年11月30日由猎鹰9火箭发射入轨。作为全球低轨互联网星座的组成部分,它运行在近地轨道,配备增强型相控阵天线与激光星间链路,可为全球用户提供高速低延迟的宽带互联网服务,助力星链实现全球覆盖,支撑民用通信、移动互联等多场景应用,是SpaceX加速第二代星链部署的典型节点卫星。

基本信息
目录编号:
62150
目录名称:
STARLINK-32629
国际标识:
2024-224M
轨道中心:
EARTH
卫星名称:
星链-32629
卫星全名:
星链-32629 (STARLINK-32629)
卫星状态:
在轨 (已飞行470 天)
发射日期:
2024-11-30 UTC
国别 :
美国 (US)
星等 :
--
轨道信息
数据来源 国际轨道数据
星历时间: 2026-03-15T04:22:31+0800
9小时前
查看轨道信息
半长轴: 6861.111km
偏心率: 0.0000394
轨道倾角: 42.998°
近地点辐角 7.400°
升交点赤经 128.575°
平近点角 352.686°
近地点: 482.703km
远地点: 483.245km
周期: 94.265分钟
每日圈数: 15.276054
详细信息
固有亮度:
5
最大亮度:
2.5
卫星平台:
Starlink V1.0
覆盖范围:
全球
运营商:
太空探索技术公司
运营商所在国:
美国
制造商(研发单位):
太空探索技术公司
制造商所在国:
美国
使用方式:
暂无
卫星简介
Starlink 计划是 SpaceX 推出的全球卫星互联网项目,通过发射低轨道卫星,为全球尤其是偏远地区提供高速、低延迟的互联网服务。自 2019 年起,Starlink 已部署数千颗卫星,旨在缩小全球数字鸿沟,推动互联网普及。该项目还为军事、航空等行业提供通信支持,带来广泛经济效益。
2D轨道图
3D轨道图
轨道高度分析图
轨道倾角分析图
轨道综合分析图
查看轨道综合分析图